Year,Month,Day,Hour,Minute,Value (Times are PST for temperature in C)
2016,06,22,00,00,13.20
2016,06,22,00,01,13.20
2016,06,22,00,02,13.20
2016,06,22,00,03,13.20
2016,06,22,00,04,13.10
2016,06,22,00,05,13.10
2016,06,22,00,06,13.10
2016,06,22,00,07,13.10
2016,06,22,00,08,13.10
2016,06,22,00,09,13.10
2016,06,22,00,10,13.10
2016,06,22,00,11,13.00
2016,06,22,00,12,13.00
2016,06,22,00,13,13.00
2016,06,22,00,14,13.00
2016,06,22,00,15,13.00
2016,06,22,00,16,13.00
2016,06,22,00,17,13.00
2016,06,22,00,18,13.00
2016,06,22,00,19,13.00
2016,06,22,00,20,13.00
2016,06,22,00,21,13.00
2016,06,22,00,22,13.00
2016,06,22,00,23,13.00
2016,06,22,00,24,13.00
2016,06,22,00,25,13.10
2016,06,22,00,26,13.10
2016,06,22,00,27,13.10
2016,06,22,00,28,13.10
2016,06,22,00,29,13.00
2016,06,22,00,30,13.00
2016,06,22,00,31,13.00
2016,06,22,00,32,13.00
2016,06,22,00,33,13.00
2016,06,22,00,34,13.00
2016,06,22,00,35,13.00
2016,06,22,00,36,13.00
2016,06,22,00,37,13.00
2016,06,22,00,38,13.00
2016,06,22,00,39,13.00
2016,06,22,00,40,13.00
2016,06,22,00,41,13.00
2016,06,22,00,42,13.00
2016,06,22,00,43,13.00
2016,06,22,00,44,13.00
2016,06,22,00,45,12.90
2016,06,22,00,46,12.90
2016,06,22,00,47,12.90
2016,06,22,00,48,12.90
2016,06,22,00,49,12.90
2016,06,22,00,50,12.80
2016,06,22,00,51,12.80
2016,06,22,00,52,12.80
2016,06,22,00,53,12.80
2016,06,22,00,54,12.80
2016,06,22,00,55,12.70
2016,06,22,00,56,12.70
2016,06,22,00,57,12.70
2016,06,22,00,58,12.70
2016,06,22,00,59,12.60
2016,06,22,01,00,12.60
2016,06,22,01,01,12.60
2016,06,22,01,02,12.60
2016,06,22,01,03,12.50
2016,06,22,01,04,12.50
2016,06,22,01,05,12.50
2016,06,22,01,06,12.40
2016,06,22,01,07,12.40
2016,06,22,01,08,12.40
2016,06,22,01,09,12.30
2016,06,22,01,10,12.30
2016,06,22,01,11,12.30
2016,06,22,01,12,12.30
2016,06,22,01,13,12.30
2016,06,22,01,14,12.30
2016,06,22,01,15,12.30
2016,06,22,01,16,12.30
2016,06,22,01,17,12.30
2016,06,22,01,18,12.30
2016,06,22,01,19,12.30
2016,06,22,06,08,11.60
2016,06,22,06,09,11.60
2016,06,22,06,10,11.60
2016,06,22,06,11,11.60
2016,06,22,06,12,11.70
2016,06,22,06,13,11.70
2016,06,22,06,14,11.70
2016,06,22,06,15,11.70
2016,06,22,06,16,11.70
2016,06,22,06,17,11.80
2016,06,22,06,18,11.80
2016,06,22,06,19,11.80
2016,06,22,06,20,11.80
2016,06,22,06,21,11.90
2016,06,22,06,22,11.90
2016,06,22,06,23,12.00
2016,06,22,06,24,12.00
2016,06,22,06,25,12.10
2016,06,22,06,26,12.10
2016,06,22,06,27,12.10
2016,06,22,06,28,12.20
2016,06,22,06,29,12.20
2016,06,22,06,30,12.20
2016,06,22,06,31,12.20
2016,06,22,06,32,12.30
2016,06,22,06,33,12.30
2016,06,22,06,34,12.30
2016,06,22,06,35,12.40
2016,06,22,06,36,12.40
2016,06,22,06,37,12.40
2016,06,22,06,38,12.50
2016,06,22,06,39,12.50
2016,06,22,06,40,12.60
2016,06,22,06,41,12.60
2016,06,22,06,42,12.60
2016,06,22,06,43,12.70
2016,06,22,06,44,12.70
2016,06,22,06,45,12.70
2016,06,22,06,46,12.70
2016,06,22,06,47,12.80
2016,06,22,06,48,12.80
2016,06,22,06,49,12.80
2016,06,22,06,50,12.80
2016,06,22,06,51,12.80
2016,06,22,06,52,12.90
2016,06,22,06,53,12.90
2016,06,22,06,54,12.90
2016,06,22,06,55,13.00
2016,06,22,06,56,13.00
2016,06,22,06,57,13.00
2016,06,22,06,58,13.10
2016,06,22,06,59,13.10
2016,06,22,07,00,13.10
2016,06,22,07,01,13.20
2016,06,22,07,02,13.20
2016,06,22,07,03,13.20
2016,06,22,07,04,13.20
2016,06,22,07,05,13.30
2016,06,22,07,06,13.30
2016,06,22,07,07,13.30
2016,06,22,07,08,13.40
2016,06,22,07,09,13.40
2016,06,22,07,10,13.40
2016,06,22,07,11,13.50
2016,06,22,07,12,13.50
2016,06,22,07,13,13.60
2016,06,22,07,14,13.60
2016,06,22,07,15,13.70
2016,06,22,07,16,13.70
2016,06,22,07,17,13.80
2016,06,22,07,18,13.80
2016,06,22,07,19,13.80
2016,06,22,07,20,13.80
2016,06,22,07,21,13.90
2016,06,22,07,22,13.90
2016,06,22,07,23,13.90
2016,06,22,07,24,13.90
2016,06,22,07,25,13.90
2016,06,22,07,26,14.00
2016,06,22,07,27,14.00
2016,06,22,07,28,14.00
2016,06,22,07,29,14.10
2016,06,22,07,30,14.10
2016,06,22,07,31,14.10
2016,06,22,07,32,14.20
2016,06,22,07,33,14.20
2016,06,22,07,34,14.20
2016,06,22,07,35,14.30
2016,06,22,07,36,14.30
2016,06,22,07,37,14.30
2016,06,22,07,38,14.40
2016,06,22,07,39,14.40
2016,06,22,07,40,14.50
2016,06,22,07,41,14.50
2016,06,22,07,42,14.60
2016,06,22,07,43,14.60
2016,06,22,07,44,14.60
2016,06,22,07,45,14.70
2016,06,22,07,46,14.70
2016,06,22,07,47,14.70
2016,06,22,07,48,14.70
2016,06,22,07,49,14.80
2016,06,22,07,50,14.80
2016,06,22,07,51,14.80
2016,06,22,07,52,14.80
2016,06,22,07,53,14.80
2016,06,22,07,54,14.90
2016,06,22,07,55,14.90
2016,06,22,07,56,15.00
2016,06,22,07,57,15.00
2016,06,22,07,58,15.00
2016,06,22,07,59,15.00
2016,06,22,08,00,15.00
2016,06,22,08,01,15.00
2016,06,22,08,02,15.00
2016,06,22,08,03,15.00
2016,06,22,08,04,15.00
2016,06,22,08,05,15.00
2016,06,22,08,06,15.10
2016,06,22,08,07,15.10
2016,06,22,08,08,15.10
2016,06,22,08,09,15.10
2016,06,22,08,10,15.20
2016,06,22,08,11,15.20
2016,06,22,08,12,15.20
2016,06,22,08,13,15.30
2016,06,22,08,14,15.30
2016,06,22,08,15,15.30
2016,06,22,08,16,15.40
2016,06,22,08,17,15.40
2016,06,22,08,18,15.40
2016,06,22,08,19,15.50
2016,06,22,08,20,15.50
2016,06,22,08,21,15.40
2016,06,22,08,22,15.40
2016,06,22,08,23,15.30
2016,06,22,08,24,15.30
2016,06,22,08,25,15.20
2016,06,22,08,26,15.20
2016,06,22,08,27,15.10
2016,06,22,08,28,15.10
2016,06,22,08,29,15.20
2016,06,22,08,30,15.20
2016,06,22,08,31,15.20
2016,06,22,08,32,15.30
2016,06,22,08,33,15.30
2016,06,22,08,34,15.40
2016,06,22,08,35,15.40
2016,06,22,08,36,15.40
2016,06,22,08,37,15.50
2016,06,22,08,38,15.50
2016,06,22,08,39,15.60
2016,06,22,08,40,15.60
2016,06,22,08,41,15.70
2016,06,22,08,42,15.70
2016,06,22,08,43,15.80
2016,06,22,08,44,15.80
2016,06,22,08,45,15.90
2016,06,22,08,46,15.90
2016,06,22,08,47,16.00
2016,06,22,08,48,16.10
2016,06,22,08,49,16.20
2016,06,22,08,50,16.20
2016,06,22,08,51,16.20
2016,06,22,08,52,16.20
2016,06,22,08,53,16.20
2016,06,22,08,54,16.30
2016,06,22,08,55,16.30
2016,06,22,08,56,16.30
2016,06,22,08,57,16.30
2016,06,22,08,58,16.30
2016,06,22,08,59,16.30
2016,06,22,09,00,16.30
2016,06,22,09,01,16.30
2016,06,22,09,02,16.20
2016,06,22,09,03,16.10
2016,06,22,09,04,16.00
2016,06,22,09,05,16.00
2016,06,22,09,06,15.90
2016,06,22,09,07,15.80
2016,06,22,09,08,15.80
2016,06,22,09,09,15.80
2016,06,22,09,10,15.80
2016,06,22,09,11,15.90
2016,06,22,09,12,16.00
2016,06,22,09,13,16.00
2016,06,22,09,14,16.10
2016,06,22,09,15,16.10
2016,06,22,09,16,16.10
2016,06,22,09,17,16.10
2016,06,22,09,18,16.20
2016,06,22,09,19,16.20
2016,06,22,09,20,16.30
2016,06,22,09,21,16.30
2016,06,22,09,22,16.30
2016,06,22,09,23,16.30
2016,06,22,09,24,16.30
2016,06,22,09,25,16.30
2016,06,22,09,26,16.30
2016,06,22,09,27,16.20
2016,06,22,09,28,16.20
2016,06,22,09,29,16.20
2016,06,22,09,30,16.20
2016,06,22,09,31,16.30
2016,06,22,09,32,16.30
2016,06,22,09,33,16.30
2016,06,22,09,34,16.40
2016,06,22,09,35,16.40
2016,06,22,09,36,16.40
2016,06,22,09,37,16.40
2016,06,22,09,38,16.40
2016,06,22,09,39,16.40
2016,06,22,09,40,16.40
2016,06,22,09,41,16.40
2016,06,22,09,42,16.40
2016,06,22,09,43,16.40
2016,06,22,09,44,16.40
2016,06,22,09,45,16.50
2016,06,22,09,46,16.50
2016,06,22,09,47,16.60
2016,06,22,09,48,16.60
2016,06,22,09,49,16.60
2016,06,22,09,50,16.60
2016,06,22,09,51,16.70
2016,06,22,09,52,16.70
2016,06,22,09,53,16.70
2016,06,22,09,54,16.70
2016,06,22,09,55,16.70
2016,06,22,09,56,16.80
2016,06,22,09,57,16.80
2016,06,22,09,58,16.90
2016,06,22,09,59,16.90
2016,06,22,10,00,17.00
2016,06,22,10,01,16.90
2016,06,22,10,02,17.00
2016,06,22,10,03,16.90
2016,06,22,10,04,16.90
2016,06,22,10,05,16.90
2016,06,22,10,06,16.80
2016,06,22,10,07,16.80
2016,06,22,10,08,16.80
2016,06,22,10,09,16.90
2016,06,22,10,10,16.90
2016,06,22,10,11,17.00
2016,06,22,10,12,17.10
2016,06,22,10,13,17.10
2016,06,22,10,14,17.20
2016,06,22,10,15,17.30
2016,06,22,10,16,17.30
2016,06,22,10,17,17.30
2016,06,22,10,18,17.30
2016,06,22,10,19,17.30
2016,06,22,10,20,17.30
2016,06,22,10,21,17.30
2016,06,22,10,22,17.40
2016,06,22,10,23,17.40
2016,06,22,10,24,17.40
2016,06,22,10,25,17.30
2016,06,22,10,26,17.20
2016,06,22,10,27,17.20
2016,06,22,10,28,17.10
2016,06,22,10,29,17.00
2016,06,22,10,30,17.00
2016,06,22,10,31,17.00
2016,06,22,10,32,17.00
2016,06,22,10,33,17.10
2016,06,22,10,34,17.20
2016,06,22,10,35,17.30
2016,06,22,10,36,17.20
2016,06,22,10,37,17.20
2016,06,22,10,38,17.30
2016,06,22,10,39,17.30
2016,06,22,10,40,17.30
2016,06,22,10,41,17.40
2016,06,22,10,42,17.50
2016,06,22,10,43,17.60
2016,06,22,10,44,17.60
2016,06,22,10,45,17.70
2016,06,22,10,46,17.70
2016,06,22,10,47,17.70
2016,06,22,10,48,17.90
2016,06,22,10,49,17.90
2016,06,22,10,50,17.90
2016,06,22,10,51,17.90
2016,06,22,10,52,17.90
2016,06,22,10,53,17.90
2016,06,22,10,54,17.80
2016,06,22,10,55,17.90
2016,06,22,10,56,17.90
2016,06,22,10,57,18.00
2016,06,22,10,58,17.90
2016,06,22,10,59,17.90
2016,06,22,11,00,17.80
2016,06,22,11,01,17.80
2016,06,22,11,02,17.70
2016,06,22,11,03,17.60
2016,06,22,11,04,17.60
2016,06,22,11,05,17.50
2016,06,22,11,06,17.50
2016,06,22,11,07,17.50
2016,06,22,11,08,17.60
2016,06,22,11,09,17.60
2016,06,22,11,10,17.60
2016,06,22,11,11,17.60
2016,06,22,11,12,17.50
2016,06,22,11,13,17.50
2016,06,22,11,14,17.50
2016,06,22,11,15,17.50
2016,06,22,11,16,17.50
2016,06,22,11,17,17.50
2016,06,22,11,18,17.50
2016,06,22,11,19,17.50
2016,06,22,11,20,17.40
2016,06,22,11,21,17.40
2016,06,22,11,22,17.40
2016,06,22,11,23,17.30
2016,06,22,11,24,17.30
2016,06,22,11,25,17.40
2016,06,22,11,26,17.60
2016,06,22,11,27,17.80
2016,06,22,11,28,17.90
2016,06,22,11,29,17.90
2016,06,22,11,30,18.00
2016,06,22,11,31,18.10
2016,06,22,11,32,18.20
2016,06,22,11,33,18.40
2016,06,22,11,34,18.50
2016,06,22,11,35,18.60
2016,06,22,11,36,18.70
2016,06,22,11,37,18.60
2016,06,22,11,38,18.50
2016,06,22,11,39,18.50
2016,06,22,11,40,18.60
2016,06,22,11,41,18.50
2016,06,22,11,42,18.40
2016,06,22,11,43,18.40
2016,06,22,11,44,18.30
2016,06,22,11,45,18.20
2016,06,22,11,46,18.00
2016,06,22,11,47,17.90
2016,06,22,11,48,17.90
2016,06,22,11,49,18.00
2016,06,22,11,50,18.10
2016,06,22,11,51,18.10
2016,06,22,11,52,18.20
2016,06,22,11,53,18.30
2016,06,22,11,54,18.40
2016,06,22,11,55,18.60
2016,06,22,11,56,18.70
2016,06,22,11,57,18.80
2016,06,22,11,58,18.70
2016,06,22,11,59,18.60
2016,06,22,12,00,18.40
2016,06,22,12,01,18.40
2016,06,22,12,02,18.30
2016,06,22,12,03,18.20
2016,06,22,12,04,18.10
2016,06,22,12,05,18.00
2016,06,22,12,06,18.00
2016,06,22,12,07,18.10
2016,06,22,12,08,18.20
2016,06,22,12,09,18.30
2016,06,22,12,10,18.40
2016,06,22,12,11,18.50
2016,06,22,12,12,18.60
2016,06,22,12,13,18.70
2016,06,22,12,14,18.70
2016,06,22,12,15,18.90
2016,06,22,12,16,18.90
2016,06,22,12,17,18.90
2016,06,22,12,18,18.80
2016,06,22,12,19,18.70
2016,06,22,12,20,18.60
2016,06,22,12,21,18.60
2016,06,22,12,22,18.60
2016,06,22,12,23,18.60
2016,06,22,12,24,18.70
2016,06,22,12,25,18.70
2016,06,22,12,26,18.70
2016,06,22,12,27,18.70
2016,06,22,12,28,18.70
2016,06,22,12,29,18.70
2016,06,22,12,30,18.60
2016,06,22,12,31,18.60
2016,06,22,12,32,18.60
2016,06,22,12,33,18.60
2016,06,22,12,34,18.60
2016,06,22,12,35,18.60
2016,06,22,12,36,18.60
2016,06,22,12,37,18.60
2016,06,22,12,38,18.60
2016,06,22,12,39,18.60
2016,06,22,12,40,18.60
2016,06,22,12,41,18.70
2016,06,22,12,42,18.70
2016,06,22,12,43,18.70
2016,06,22,12,44,18.70
2016,06,22,12,45,18.80
2016,06,22,12,46,18.90
2016,06,22,12,47,18.90
2016,06,22,12,48,18.90
2016,06,22,12,49,18.90
2016,06,22,12,50,18.80
2016,06,22,12,51,18.80
2016,06,22,12,52,18.70
2016,06,22,12,53,18.70
2016,06,22,12,54,18.70
2016,06,22,12,55,18.80
2016,06,22,12,56,18.80
2016,06,22,12,57,18.80
2016,06,22,12,58,18.80
2016,06,22,12,59,18.90
2016,06,22,13,00,18.90
2016,06,22,13,01,18.80
2016,06,22,13,02,18.80
2016,06,22,13,03,18.90
2016,06,22,13,04,19.00
2016,06,22,13,05,19.10
2016,06,22,13,06,19.10
2016,06,22,13,07,19.10
2016,06,22,13,08,19.10
2016,06,22,13,09,19.00
2016,06,22,13,10,19.00
2016,06,22,13,11,18.90
2016,06,22,13,12,18.70
2016,06,22,13,13,18.70
2016,06,22,13,14,18.70
2016,06,22,13,15,18.80
2016,06,22,13,16,18.90
2016,06,22,13,17,18.90
2016,06,22,13,18,18.80
2016,06,22,13,19,18.80
2016,06,22,13,20,18.80
2016,06,22,13,21,18.80
2016,06,22,13,22,18.80
2016,06,22,13,23,18.70
2016,06,22,13,24,18.70
2016,06,22,13,25,18.70
2016,06,22,13,26,18.70
2016,06,22,13,27,18.80
2016,06,22,13,28,18.90
2016,06,22,13,29,18.90
2016,06,22,13,30,19.00
2016,06,22,13,31,19.00
2016,06,22,13,32,19.00
2016,06,22,13,33,19.10
2016,06,22,13,34,19.10
2016,06,22,13,35,19.10
2016,06,22,13,36,19.10
2016,06,22,13,37,19.10
2016,06,22,13,38,19.10
2016,06,22,13,39,19.10
2016,06,22,13,40,19.10
2016,06,22,13,41,19.20
2016,06,22,13,42,19.20
2016,06,22,13,43,19.20
2016,06,22,13,44,19.20
2016,06,22,13,45,19.20
2016,06,22,13,46,19.10
2016,06,22,13,47,19.10
2016,06,22,13,48,19.10
2016,06,22,13,49,19.00
2016,06,22,13,50,18.90
2016,06,22,13,51,18.90
2016,06,22,13,52,18.90
2016,06,22,13,53,19.00
2016,06,22,13,54,19.10
2016,06,22,13,55,19.20
2016,06,22,13,56,19.30
2016,06,22,13,57,19.30
2016,06,22,13,58,19.40
2016,06,22,13,59,19.40
2016,06,22,14,00,19.40
2016,06,22,14,01,19.50
2016,06,22,14,02,19.50
2016,06,22,14,03,19.50
2016,06,22,14,04,19.40
2016,06,22,14,05,19.40
2016,06,22,14,06,19.30
2016,06,22,14,07,19.30
2016,06,22,14,08,19.30
2016,06,22,14,09,19.30
2016,06,22,14,10,19.30
2016,06,22,14,11,19.30
2016,06,22,14,12,19.30
2016,06,22,14,13,19.30
2016,06,22,14,14,19.30
2016,06,22,14,15,19.30
2016,06,22,14,16,19.30
2016,06,22,14,17,19.40
2016,06,22,14,18,19.50
2016,06,22,14,19,19.60
2016,06,22,14,20,19.60
2016,06,22,14,21,19.70
2016,06,22,14,22,19.80
2016,06,22,14,23,19.80
2016,06,22,14,24,19.70
2016,06,22,14,25,19.60
2016,06,22,14,26,19.60
2016,06,22,14,27,19.60
2016,06,22,14,28,19.60
2016,06,22,14,29,19.60
2016,06,22,14,30,19.60
2016,06,22,14,31,19.70
2016,06,22,14,32,19.70
2016,06,22,14,33,19.80
2016,06,22,14,34,19.80
2016,06,22,14,35,19.80
2016,06,22,14,36,19.70
2016,06,22,14,37,19.70
2016,06,22,14,38,19.70
2016,06,22,14,39,19.80
2016,06,22,14,40,19.80
2016,06,22,14,41,19.80
2016,06,22,14,42,19.90
2016,06,22,14,43,19.80
2016,06,22,14,44,19.70
2016,06,22,14,45,19.70
2016,06,22,14,46,19.60
2016,06,22,14,47,19.50
2016,06,22,14,48,19.50
2016,06,22,14,49,19.50
2016,06,22,14,50,19.50
2016,06,22,14,51,19.50
2016,06,22,14,52,19.50
2016,06,22,14,53,19.60
2016,06,22,14,54,19.60
2016,06,22,14,55,19.70
2016,06,22,14,56,19.80
2016,06,22,14,57,19.80
2016,06,22,14,58,19.90
2016,06,22,14,59,20.00
2016,06,22,15,00,20.10
2016,06,22,15,01,20.20
2016,06,22,15,02,20.30
2016,06,22,15,03,20.30
2016,06,22,15,04,20.20
2016,06,22,15,05,20.10
2016,06,22,15,06,20.00
2016,06,22,15,07,19.90
2016,06,22,15,08,19.80
2016,06,22,15,09,19.70
2016,06,22,15,10,19.70
2016,06,22,15,11,19.70
2016,06,22,15,12,19.60
2016,06,22,15,13,19.50
2016,06,22,15,14,19.40
2016,06,22,15,15,19.40
2016,06,22,15,16,19.40
2016,06,22,15,17,19.30
2016,06,22,15,18,19.30
2016,06,22,15,19,19.20
2016,06,22,15,20,19.10
2016,06,22,15,21,19.00
2016,06,22,15,22,19.00
2016,06,22,15,23,18.90
2016,06,22,15,24,18.80
2016,06,22,15,25,18.80
2016,06,22,15,26,18.90
2016,06,22,15,27,18.80
2016,06,22,15,28,18.80
2016,06,22,15,29,18.90
2016,06,22,15,30,18.90
2016,06,22,15,31,18.90
2016,06,22,15,32,18.90
2016,06,22,15,33,18.80
2016,06,22,15,34,18.80
2016,06,22,15,35,18.80
2016,06,22,15,36,18.80
2016,06,22,15,37,18.80
2016,06,22,15,38,18.80
2016,06,22,15,39,18.80
2016,06,22,15,40,18.90
2016,06,22,15,41,19.00
2016,06,22,15,42,19.10
2016,06,22,15,43,19.20
2016,06,22,15,44,19.20
2016,06,22,15,45,19.20
2016,06,22,15,46,19.20
2016,06,22,15,47,19.20
2016,06,22,15,48,19.20
2016,06,22,15,49,19.20
2016,06,22,15,50,19.20
2016,06,22,15,51,19.20
2016,06,22,15,52,19.20
2016,06,22,15,53,19.20
2016,06,22,15,54,19.20
2016,06,22,15,55,19.20
2016,06,22,15,56,19.10
2016,06,22,15,57,19.10
2016,06,22,15,58,19.00
2016,06,22,15,59,19.00
2016,06,22,16,00,19.00
2016,06,22,16,01,19.00
2016,06,22,16,02,19.10
2016,06,22,16,03,19.10
2016,06,22,16,04,19.00
2016,06,22,16,05,19.00
2016,06,22,16,06,18.90
2016,06,22,16,07,18.90
2016,06,22,16,08,18.90
2016,06,22,16,09,19.00
2016,06,22,16,10,19.00
2016,06,22,16,11,19.10
2016,06,22,16,12,19.10
2016,06,22,16,13,19.10
2016,06,22,16,14,19.20
2016,06,22,16,15,19.20
2016,06,22,16,16,19.30
2016,06,22,16,17,19.30
2016,06,22,16,18,19.30
2016,06,22,16,19,19.40
2016,06,22,16,20,19.40
2016,06,22,16,21,19.40
2016,06,22,16,22,19.40
2016,06,22,16,23,19.40
2016,06,22,16,24,19.40
2016,06,22,16,25,19.50
2016,06,22,16,26,19.50
2016,06,22,16,27,19.60
2016,06,22,16,28,19.60
2016,06,22,16,29,19.70
2016,06,22,16,30,19.70
2016,06,22,16,31,19.70
2016,06,22,16,32,19.80
2016,06,22,16,33,19.80
2016,06,22,16,34,19.90
2016,06,22,16,35,20.00
2016,06,22,16,36,20.00
2016,06,22,16,37,20.10
2016,06,22,16,38,20.20
2016,06,22,16,39,20.20
2016,06,22,16,40,20.20
2016,06,22,16,41,20.20
2016,06,22,16,42,20.10
2016,06,22,16,43,20.10
2016,06,22,16,44,20.00
2016,06,22,16,45,20.00
2016,06,22,16,46,19.90
2016,06,22,16,47,19.90
2016,06,22,16,48,19.80
2016,06,22,16,49,19.70
2016,06,22,16,50,19.70
2016,06,22,16,51,19.60
2016,06,22,16,52,19.60
2016,06,22,16,53,19.50
2016,06,22,16,54,19.40
2016,06,22,16,55,19.40
2016,06,22,16,56,19.40
2016,06,22,16,57,19.30
2016,06,22,16,58,19.40
2016,06,22,16,59,19.40
2016,06,22,17,00,19.40
2016,06,22,17,01,19.40
2016,06,22,17,02,19.40
2016,06,22,17,03,19.40
2016,06,22,17,04,19.30
2016,06,22,17,05,19.30
2016,06,22,17,06,19.30
2016,06,22,17,07,19.30
2016,06,22,17,08,19.30
2016,06,22,17,09,19.30
2016,06,22,17,10,19.20
2016,06,22,17,11,19.20
2016,06,22,17,12,19.10
2016,06,22,17,13,19.10
2016,06,22,17,14,19.10
2016,06,22,17,15,19.10
2016,06,22,17,16,19.10
2016,06,22,17,17,19.10
2016,06,22,17,18,19.20
2016,06,22,17,19,19.20
2016,06,22,17,20,19.20
2016,06,22,17,21,19.20
2016,06,22,17,22,19.20
2016,06,22,17,23,19.20
2016,06,22,17,24,19.20
2016,06,22,17,25,19.20
2016,06,22,17,26,19.10
2016,06,22,17,27,19.10
2016,06,22,17,28,19.00
2016,06,22,17,29,19.00
2016,06,22,17,30,19.00
2016,06,22,17,31,18.90
2016,06,22,17,32,18.90
2016,06,22,17,33,18.90
2016,06,22,17,34,18.90
2016,06,22,17,35,18.80
2016,06,22,17,36,18.80
2016,06,22,17,37,18.80
2016,06,22,17,38,18.80
2016,06,22,17,39,18.80
2016,06,22,17,40,18.80
2016,06,22,17,41,18.80
2016,06,22,17,42,18.70
2016,06,22,17,43,18.70
2016,06,22,17,44,18.60
2016,06,22,17,45,18.60
2016,06,22,17,46,18.50
2016,06,22,17,47,18.40
2016,06,22,17,48,18.30
2016,06,22,17,49,18.30
2016,06,22,17,50,18.20
2016,06,22,17,51,18.20
2016,06,22,17,52,18.10
2016,06,22,17,53,18.00
2016,06,22,17,54,18.00
2016,06,22,17,55,17.90
2016,06,22,17,56,17.90
2016,06,22,17,57,17.80
2016,06,22,17,58,17.80
2016,06,22,17,59,17.80
2016,06,22,18,00,17.80
2016,06,22,18,01,17.80
2016,06,22,18,02,17.80
2016,06,22,18,03,17.80
2016,06,22,18,04,17.90
2016,06,22,18,05,17.90
2016,06,22,18,06,17.90
2016,06,22,18,07,17.90
2016,06,22,18,08,17.90
2016,06,22,18,09,18.00
2016,06,22,18,10,18.00
2016,06,22,18,11,18.10
2016,06,22,18,12,18.10
2016,06,22,18,13,18.10
2016,06,22,18,14,18.20
2016,06,22,18,15,18.20
2016,06,22,18,16,18.20
2016,06,22,18,17,18.30
2016,06,22,18,18,18.30
2016,06,22,18,19,18.30
2016,06,22,18,20,18.30
2016,06,22,18,21,18.30
2016,06,22,18,22,18.40
2016,06,22,18,23,18.40
2016,06,22,18,24,18.40
2016,06,22,18,25,18.40
2016,06,22,18,26,18.40
2016,06,22,18,27,18.40
2016,06,22,18,28,18.50
2016,06,22,18,29,18.50
2016,06,22,18,30,18.50
2016,06,22,18,31,18.50
2016,06,22,18,32,18.50
2016,06,22,18,33,18.50
2016,06,22,18,34,18.50
2016,06,22,18,35,18.50
2016,06,22,18,36,18.50
2016,06,22,18,37,18.50
2016,06,22,18,38,18.50
2016,06,22,18,39,18.50
2016,06,22,18,40,18.50
2016,06,22,18,41,18.50
2016,06,22,18,42,18.40
2016,06,22,18,43,18.40
2016,06,22,18,44,18.40
2016,06,22,18,45,18.40
2016,06,22,18,46,18.40
2016,06,22,18,47,18.40
2016,06,22,18,48,18.40
2016,06,22,18,49,18.30
2016,06,22,18,50,18.30
2016,06,22,18,51,18.30
2016,06,22,18,52,18.30
2016,06,22,18,53,18.30
2016,06,22,18,54,18.30
2016,06,22,18,55,18.20
2016,06,22,18,56,18.10
2016,06,22,18,57,18.00
2016,06,22,18,58,17.90
2016,06,22,18,59,17.90
2016,06,22,19,00,17.80
2016,06,22,19,01,17.70
2016,06,22,19,02,17.50
2016,06,22,19,03,17.40
2016,06,22,19,04,17.30
2016,06,22,19,05,17.20
2016,06,22,19,06,17.00
2016,06,22,19,07,16.90
2016,06,22,19,08,16.80
2016,06,22,19,09,16.70
2016,06,22,19,10,16.50
2016,06,22,19,11,16.40
2016,06,22,19,12,16.30
2016,06,22,19,13,16.20
2016,06,22,19,14,16.10
2016,06,22,19,15,16.00
2016,06,22,19,16,15.90
2016,06,22,19,17,15.80
2016,06,22,19,18,15.70
2016,06,22,19,19,15.60
2016,06,22,19,20,15.50
2016,06,22,19,21,15.50
2016,06,22,19,22,15.40
2016,06,22,19,23,15.30
2016,06,22,19,24,15.30
2016,06,22,19,25,15.20
2016,06,22,19,26,15.20
2016,06,22,19,27,15.20
2016,06,22,19,28,15.10
2016,06,22,19,29,15.10
2016,06,22,19,30,15.10
2016,06,22,19,31,15.10
2016,06,22,19,32,15.10
2016,06,22,19,33,15.00
2016,06,22,19,34,15.00
2016,06,22,19,35,15.00
2016,06,22,19,36,15.00
2016,06,22,19,37,15.00
2016,06,22,19,38,14.90
2016,06,22,19,39,14.90
2016,06,22,19,40,14.90
2016,06,22,19,41,14.90
2016,06,22,19,42,14.80
2016,06,22,19,43,14.80
2016,06,22,19,44,14.80
2016,06,22,19,45,14.70
2016,06,22,19,46,14.70
2016,06,22,19,47,14.70
2016,06,22,19,48,14.70
2016,06,22,19,49,14.60
2016,06,22,19,50,14.60
2016,06,22,19,51,14.60
2016,06,22,19,52,14.50
2016,06,22,19,53,14.50
2016,06,22,19,54,14.50
2016,06,22,19,55,14.40
2016,06,22,19,56,14.40
2016,06,22,19,57,14.40
2016,06,22,19,58,14.40
2016,06,22,19,59,14.40
2016,06,22,20,00,14.40
2016,06,22,20,01,14.30
2016,06,22,20,02,14.30
2016,06,22,20,03,14.30
2016,06,22,20,04,14.30
2016,06,22,20,05,14.30
2016,06,22,20,06,14.20
2016,06,22,20,07,14.20
2016,06,22,20,08,14.20
2016,06,22,20,09,14.20
2016,06,22,20,10,14.10
2016,06,22,20,11,14.10
2016,06,22,20,12,14.10
2016,06,22,20,13,14.10
2016,06,22,20,14,14.00
2016,06,22,20,15,14.00
2016,06,22,20,16,14.00
2016,06,22,20,17,14.00
2016,06,22,20,18,13.90
2016,06,22,20,19,13.90
2016,06,22,20,20,13.90
2016,06,22,20,21,13.90
2016,06,22,20,22,13.90
2016,06,22,20,23,13.90
2016,06,22,20,24,13.90
2016,06,22,20,25,13.90
2016,06,22,20,26,13.90
2016,06,22,20,27,13.90
2016,06,22,20,28,13.90
2016,06,22,20,29,13.90
2016,06,22,20,30,13.90
2016,06,22,20,31,13.90
2016,06,22,20,32,13.90
2016,06,22,20,33,13.90
2016,06,22,20,34,13.90
2016,06,22,20,35,13.90
2016,06,22,20,36,13.90
2016,06,22,20,37,13.90
2016,06,22,20,38,13.90
2016,06,22,20,39,13.90
2016,06,22,20,40,13.90
2016,06,22,20,41,13.90
2016,06,22,20,42,13.80
2016,06,22,20,43,13.80
2016,06,22,20,44,13.80
2016,06,22,20,45,13.80
2016,06,22,20,46,13.80
2016,06,22,20,47,13.80
2016,06,22,20,48,13.80
2016,06,22,20,49,13.80
2016,06,22,20,50,13.80
2016,06,22,20,51,13.80
2016,06,22,20,52,13.80
2016,06,22,20,53,13.80
2016,06,22,20,54,13.80
2016,06,22,20,55,13.70
2016,06,22,20,56,13.70
2016,06,22,20,57,13.70
2016,06,22,20,58,13.70
2016,06,22,20,59,13.70
2016,06,22,21,00,13.70
2016,06,22,21,01,13.70
2016,06,22,21,02,13.70
2016,06,22,21,03,13.70
2016,06,22,21,04,13.60
2016,06,22,21,05,13.60
2016,06,22,21,06,13.60
2016,06,22,21,07,13.60
2016,06,22,21,08,13.60
2016,06,22,21,09,13.60
2016,06,22,21,10,13.60
2016,06,22,21,11,13.50
2016,06,22,21,12,13.50
2016,06,22,21,13,13.50
2016,06,22,21,14,13.40
2016,06,22,21,15,13.40
2016,06,22,21,16,13.40
2016,06,22,21,17,13.40
2016,06,22,21,18,13.50
2016,06,22,21,19,13.40
2016,06,22,21,20,13.40
2016,06,22,21,21,13.40
2016,06,22,21,22,13.40
2016,06,22,21,23,13.40
2016,06,22,21,24,13.40
2016,06,22,21,25,13.40
2016,06,22,21,26,13.40
2016,06,22,21,27,13.40
2016,06,22,21,28,13.40
2016,06,22,21,29,13.30
2016,06,22,21,30,13.30
2016,06,22,21,31,13.30
2016,06,22,21,32,13.30
2016,06,22,21,33,13.30
2016,06,22,21,34,13.30
2016,06,22,21,35,13.30
2016,06,22,21,36,13.30
2016,06,22,21,37,13.30
2016,06,22,21,38,13.30
2016,06,22,21,39,13.30
2016,06,22,21,40,13.30
2016,06,22,21,41,13.30
2016,06,22,21,42,13.30
2016,06,22,21,43,13.30
2016,06,22,21,44,13.30
2016,06,22,21,45,13.30
2016,06,22,21,46,13.30
2016,06,22,21,47,13.30
2016,06,22,21,48,13.30
2016,06,22,21,49,13.30
2016,06,22,21,50,13.30
2016,06,22,21,51,13.30
2016,06,22,21,52,13.20
2016,06,22,21,53,13.20
2016,06,22,21,54,13.20
2016,06,22,21,55,13.20
2016,06,22,21,56,13.20
2016,06,22,21,57,13.20
2016,06,22,21,58,13.20
2016,06,22,21,59,13.20
2016,06,22,22,00,13.20
2016,06,22,22,01,13.20
2016,06,22,22,02,13.20
2016,06,22,22,03,13.20
2016,06,22,22,04,13.20
2016,06,22,22,05,13.20
2016,06,22,22,06,13.20
2016,06,22,22,07,13.20